Time,TemperatureF,DewpointF,PressureIn,WindDirection,WindDirectionDegrees,WindSpeedMPH,WindSpeedGustMPH,Humidity,HourlyPrecipIn,Conditions,Clouds,dailyrainin,SoftwareType,DateUTC
2013-01-25 00:01:00,61.0,46.0,30.14,NNE,12,2.0,2.0,58,0.00,,,0.00,,2013-01-25 07:01:00,
2013-01-25 00:11:00,61.0,46.0,30.14,NNE,12,2.0,2.0,58,0.00,,,0.00,,2013-01-25 07:11:00,
2013-01-25 00:21:00,61.0,47.0,30.14,NNE,12,2.0,4.0,59,0.00,,,0.00,,2013-01-25 07:21:00,
2013-01-25 00:31:00,61.0,47.0,30.14,NNE,14,3.0,3.0,59,0.00,,,0.00,,2013-01-25 07:31:00,
2013-01-25 00:41:00,61.0,47.0,30.14,NNE,14,3.0,3.0,59,0.00,,,0.00,,2013-01-25 07:41:00,
2013-01-25 00:51:00,61.0,46.0,30.14,NNE,25,1.0,3.0,58,0.00,,,0.00,,2013-01-25 07:51:00,
2013-01-25 01:01:00,61.0,47.0,30.13,NNE,19,2.0,3.0,59,0.00,,,0.00,,2013-01-25 08:01:00,
2013-01-25 01:11:00,61.0,47.0,30.13,NE,50,2.0,2.0,59,0.00,,,0.00,,2013-01-25 08:11:00,
2013-01-25 01:21:00,61.0,47.0,30.13,NE,50,2.0,2.0,59,0.00,,,0.00,,2013-01-25 08:21:00,
2013-01-25 01:31:00,61.0,46.0,30.14,NE,41,1.0,2.0,58,0.00,,,0.00,,2013-01-25 08:31:00,
2013-01-25 01:41:00,61.0,46.0,30.14,NE,41,1.0,2.0,58,0.00,,,0.00,,2013-01-25 08:41:00,
2013-01-25 01:52:00,61.0,47.0,30.14,NE,41,0.0,1.0,59,0.00,,,0.00,,2013-01-25 08:52:00,
2013-01-25 02:01:00,61.0,47.0,30.14,NE,38,2.0,3.0,61,0.00,,,0.00,,2013-01-25 09:01:00,
2013-01-25 02:11:00,61.0,47.0,30.14,NE,38,2.0,3.0,61,0.00,,,0.00,,2013-01-25 09:11:00,
2013-01-25 02:21:00,62.0,49.0,30.12,NNE,33,3.0,5.0,62,0.00,,,0.00,,2013-01-25 09:21:00,
2013-01-25 02:31:00,62.0,49.0,30.13,NNE,16,3.0,5.0,62,0.00,,,0.00,,2013-01-25 09:31:00,
2013-01-25 02:41:00,62.0,49.0,30.13,NNE,16,3.0,5.0,62,0.00,,,0.00,,2013-01-25 09:41:00,
2013-01-25 02:52:00,62.0,49.0,30.12,North,4,4.0,6.0,62,0.00,,,0.00,,2013-01-25 09:52:00,
2013-01-25 03:01:00,61.0,49.0,30.12,NE,37,2.0,5.0,64,0.00,,,0.00,,2013-01-25 10:01:00,
2013-01-25 03:11:00,61.0,50.0,30.11,NNE,27,2.0,4.0,66,0.00,,,0.00,,2013-01-25 10:11:00,
2013-01-25 03:21:00,61.0,50.0,30.11,NNE,27,2.0,4.0,66,0.00,,,0.00,,2013-01-25 10:21:00,
2013-01-25 03:31:00,61.0,50.0,30.12,NNE,21,2.0,3.0,67,0.00,,,0.00,,2013-01-25 10:31:00,
2013-01-25 03:41:00,61.0,50.0,30.12,NNE,21,2.0,3.0,67,0.00,,,0.00,,2013-01-25 10:41:00,
2013-01-25 03:52:00,61.0,50.0,30.11,North,4,4.0,5.0,68,0.00,,,0.00,,2013-01-25 10:52:00,
2013-01-25 04:01:00,62.0,51.0,30.10,North,4,6.0,9.0,68,0.00,,,0.00,,2013-01-25 11:01:00,
2013-01-25 04:11:00,62.0,51.0,30.10,North,4,6.0,9.0,68,0.00,,,0.00,,2013-01-25 11:11:00,
2013-01-25 04:22:00,62.0,51.0,30.10,East,79,6.0,8.0,68,0.00,,,0.00,,2013-01-25 11:22:00,
2013-01-25 04:31:00,63.0,52.0,30.10,North,4,5.0,8.0,67,0.00,,,0.00,,2013-01-25 11:31:00,
2013-01-25 04:41:00,63.0,52.0,30.10,North,4,5.0,8.0,67,0.00,,,0.00,,2013-01-25 11:41:00,
2013-01-25 04:52:00,63.0,52.0,30.11,NE,35,4.0,6.0,67,0.00,,,0.00,,2013-01-25 11:52:00,
2013-01-25 05:01:00,63.0,52.0,30.10,NNE,21,4.0,6.0,67,0.00,,,0.00,,2013-01-25 12:01:00,
2013-01-25 05:11:00,63.0,52.0,30.10,NNE,21,4.0,6.0,67,0.00,,,0.00,,2013-01-25 12:11:00,
2013-01-25 05:21:00,63.0,52.0,30.09,NNE,18,4.0,7.0,67,0.00,,,0.00,,2013-01-25 12:21:00,
2013-01-25 05:32:00,63.0,52.0,30.09,NE,41,4.0,5.0,67,0.00,,,0.00,,2013-01-25 12:32:00,
2013-01-25 05:41:00,63.0,52.0,30.09,NE,41,4.0,5.0,67,0.00,,,0.00,,2013-01-25 12:41:00,
2013-01-25 05:53:00,63.0,52.0,30.10,North,9,4.0,5.0,67,0.00,,,0.00,,2013-01-25 12:53:00,
2013-01-25 06:01:00,63.0,52.0,30.11,NNE,18,3.0,5.0,67,0.00,,,0.00,,2013-01-25 13:01:00,
2013-01-25 06:11:00,63.0,52.0,30.11,NNE,18,3.0,5.0,67,0.00,,,0.00,,2013-01-25 13:11:00,
2013-01-25 06:21:00,62.0,51.0,30.10,NE,55,3.0,5.0,68,0.00,,,0.00,,2013-01-25 13:21:00,
2013-01-25 06:31:00,62.0,51.0,30.10,NE,35,3.0,4.0,68,0.00,,,0.00,,2013-01-25 13:31:00,
2013-01-25 06:42:00,62.0,51.0,30.10,NE,35,3.0,4.0,68,0.00,,,0.00,,2013-01-25 13:42:00,
2013-01-25 06:52:00,62.0,52.0,30.09,NE,41,2.0,4.0,69,0.00,,,0.00,,2013-01-25 13:52:00,
2013-01-25 07:02:00,62.0,52.0,30.09,NNE,32,3.0,4.0,69,0.00,,,0.00,,2013-01-25 14:02:00,
2013-01-25 07:11:00,62.0,52.0,30.09,NNE,32,3.0,4.0,69,0.00,,,0.00,,2013-01-25 14:11:00,
2013-01-25 07:22:00,61.0,51.0,30.10,NNE,23,2.0,3.0,70,0.00,,,0.00,,2013-01-25 14:22:00,
2013-01-25 07:32:00,61.0,52.0,30.10,NNE,29,2.0,3.0,71,0.00,,,0.00,,2013-01-25 14:32:00,
2013-01-25 07:41:00,61.0,52.0,30.10,NNE,29,2.0,3.0,71,0.00,,,0.00,,2013-01-25 14:41:00,
2013-01-25 07:53:00,61.0,52.0,30.09,North,4,3.0,4.0,71,0.00,,,0.00,,2013-01-25 14:53:00,
2013-01-25 08:01:00,61.0,52.0,30.09,North,4,3.0,4.0,71,0.00,,,0.00,,2013-01-25 15:01:00,
2013-01-25 08:11:00,61.0,52.0,30.09,North,4,3.0,4.0,71,0.00,,,0.00,,2013-01-25 15:11:00,
2013-01-25 08:21:00,62.0,52.0,30.10,NNE,12,3.0,3.0,70,0.00,,,0.00,,2013-01-25 15:21:00,
2013-01-25 08:31:00,62.0,52.0,30.10,NNE,17,1.0,5.0,69,0.00,,,0.00,,2013-01-25 15:31:00,
2013-01-25 08:41:00,62.0,52.0,30.10,NNE,17,1.0,5.0,69,0.00,,,0.00,,2013-01-25 15:41:00,
2013-01-25 08:52:00,62.0,52.0,30.11,NNE,30,2.0,3.0,69,0.00,,,0.00,,2013-01-25 15:52:00,
2013-01-25 09:01:00,62.0,52.0,30.11,NNW,348,3.0,4.0,69,0.00,,,0.00,,2013-01-25 16:01:00,
2013-01-25 09:11:00,62.0,52.0,30.11,NNW,348,3.0,4.0,69,0.00,,,0.00,,2013-01-25 16:11:00,
2013-01-25 09:21:00,63.0,52.0,30.11,NNE,25,4.0,7.0,68,0.00,,,0.00,,2013-01-25 16:21:00,
2013-01-25 09:31:00,63.0,52.0,30.12,North,3,3.0,5.0,67,0.00,,,0.00,,2013-01-25 16:31:00,
2013-01-25 09:41:00,63.0,52.0,30.12,North,3,3.0,5.0,67,0.00,,,0.00,,2013-01-25 16:41:00,
2013-01-25 09:52:00,63.0,51.0,30.12,North,349,5.0,6.0,66,0.00,,,0.00,,2013-01-25 16:52:00,
2013-01-25 10:01:00,64.0,52.0,30.13,North,10,4.0,5.0,64,0.00,,,0.00,,2013-01-25 17:01:00,
2013-01-25 10:11:00,64.0,52.0,30.13,North,10,4.0,5.0,64,0.00,,,0.00,,2013-01-25 17:11:00,
2013-01-25 10:21:00,64.0,51.0,30.13,NNE,12,3.0,3.0,63,0.00,,,0.00,,2013-01-25 17:21:00,
2013-01-25 10:31:00,65.0,52.0,30.14,NE,39,3.0,5.0,62,0.00,,,0.00,,2013-01-25 17:31:00,
2013-01-25 10:42:00,65.0,52.0,30.14,NE,39,3.0,5.0,62,0.00,,,0.00,,2013-01-25 17:42:00,
2013-01-25 10:53:00,66.0,52.0,30.13,North,10,5.0,7.0,60,0.00,,,0.00,,2013-01-25 17:53:00,
2013-01-25 11:01:00,66.0,51.0,30.13,NNW,343,5.0,7.0,59,0.00,,,0.00,,2013-01-25 18:01:00,
2013-01-25 11:11:00,66.0,51.0,30.13,NNW,343,5.0,7.0,59,0.00,,,0.00,,2013-01-25 18:11:00,
2013-01-25 11:22:00,67.0,51.0,30.12,NNE,25,6.0,8.0,56,0.00,,,0.00,,2013-01-25 18:22:00,
2013-01-25 11:32:00,69.0,51.0,30.12,NNE,22,8.0,11.0,53,0.00,,,0.00,,2013-01-25 18:32:00,
2013-01-25 11:41:00,69.0,51.0,30.12,NNE,22,8.0,11.0,53,0.00,,,0.00,,2013-01-25 18:41:00,
2013-01-25 11:52:00,70.0,52.0,30.11,NW,325,7.0,10.0,52,0.00,,,0.00,,2013-01-25 18:52:00,
2013-01-25 12:01:00,70.0,50.0,30.11,North,7,7.0,9.0,50,0.00,,,0.00,,2013-01-25 19:01:00,
2013-01-25 12:11:00,70.0,50.0,30.11,North,7,7.0,9.0,50,0.00,,,0.00,,2013-01-25 19:11:00,
2013-01-25 12:21:00,70.0,50.0,30.11,NNE,12,5.0,6.0,50,0.00,,,0.00,,2013-01-25 19:21:00,
2013-01-25 12:31:00,72.0,51.0,30.09,North,10,7.0,9.0,48,0.00,,,0.00,,2013-01-25 19:31:00,
2013-01-25 12:41:00,72.0,51.0,30.09,North,10,7.0,9.0,48,0.00,,,0.00,,2013-01-25 19:41:00,
2013-01-25 12:53:00,72.0,50.0,30.08,North,4,6.0,10.0,46,0.00,,,0.00,,2013-01-25 19:53:00,
2013-01-25 13:01:00,72.0,51.0,30.08,NNE,28,5.0,8.0,47,0.00,,,0.00,,2013-01-25 20:01:00,
2013-01-25 13:11:00,72.0,51.0,30.08,NNE,28,5.0,8.0,47,0.00,,,0.00,,2013-01-25 20:11:00,
2013-01-25 13:21:00,72.0,50.0,30.07,NW,318,8.0,11.0,46,0.00,,,0.00,,2013-01-25 20:21:00,
2013-01-25 13:31:00,72.0,50.0,30.06,NNW,344,7.0,10.0,46,0.00,,,0.00,,2013-01-25 20:31:00,
2013-01-25 13:41:00,72.0,50.0,30.06,NNW,344,7.0,10.0,46,0.00,,,0.00,,2013-01-25 20:41:00,
2013-01-25 13:52:00,71.0,50.0,30.06,NNW,329,6.0,8.0,47,0.00,,,0.00,,2013-01-25 20:52:00,
2013-01-25 14:01:00,71.0,50.0,30.04,NNW,335,6.0,8.0,47,0.00,,,0.00,,2013-01-25 21:01:00,
2013-01-25 14:11:00,71.0,50.0,30.04,NNW,335,6.0,8.0,47,0.00,,,0.00,,2013-01-25 21:11:00,
2013-01-25 14:22:00,71.0,50.0,30.03,NNW,345,3.0,10.0,47,0.00,,,0.00,,2013-01-25 21:22:00,
2013-01-25 14:32:00,71.0,49.0,30.03,NW,311,5.0,7.0,46,0.00,,,0.00,,2013-01-25 21:32:00,
2013-01-25 14:42:00,71.0,49.0,30.03,NW,311,5.0,7.0,46,0.00,,,0.00,,2013-01-25 21:42:00,
2013-01-25 14:52:00,71.0,50.0,30.03,NNW,345,5.0,5.0,48,0.00,,,0.00,,2013-01-25 21:52:00,
2013-01-25 15:01:00,70.0,50.0,30.02,North,4,5.0,6.0,50,0.00,,,0.00,,2013-01-25 22:01:00,
2013-01-25 15:11:00,70.0,50.0,30.02,North,4,5.0,6.0,50,0.00,,,0.00,,2013-01-25 22:11:00,
2013-01-25 15:21:00,70.0,53.0,30.02,NNE,25,3.0,4.0,54,0.00,,,0.00,,2013-01-25 22:21:00,
2013-01-25 15:31:00,69.0,54.0,30.01,North,354,4.0,5.0,59,0.01,,,0.01,,2013-01-25 22:31:00,
2013-01-25 15:41:00,69.0,54.0,30.01,North,354,4.0,5.0,59,0.01,,,0.01,,2013-01-25 22:41:00,
2013-01-25 15:52:00,68.0,57.0,30.02,WNW,301,3.0,8.0,68,0.02,,,0.02,,2013-01-25 22:52:00,
2013-01-25 16:01:00,67.0,58.0,30.01,WNW,291,4.0,6.0,72,0.02,,,0.02,,2013-01-25 23:01:00,
2013-01-25 16:11:00,67.0,58.0,30.01,WNW,291,4.0,6.0,72,0.02,,,0.02,,2013-01-25 23:11:00,
2013-01-25 16:21:00,66.0,57.0,30.00,WNW,291,3.0,5.0,74,0.02,,,0.02,,2013-01-25 23:21:00,
2013-01-25 16:31:00,65.0,57.0,30.00,NW,310,2.0,8.0,76,0.01,,,0.02,,2013-01-25 23:31:00,
2013-01-25 16:41:00,65.0,57.0,30.00,NW,310,2.0,8.0,76,0.01,,,0.02,,2013-01-25 23:41:00,
2013-01-25 16:52:00,65.0,57.0,30.00,NW,314,3.0,7.0,76,0.00,,,0.02,,2013-01-25 23:52:00,
2013-01-25 17:01:00,64.0,57.0,29.99,WNW,299,3.0,3.0,77,0.00,,,0.02,,2013-01-26 00:01:00,
2013-01-25 17:11:00,64.0,57.0,29.99,WNW,299,3.0,3.0,77,0.00,,,0.02,,2013-01-26 00:11:00,
2013-01-25 17:22:00,64.0,57.0,29.99,WNW,298,3.0,6.0,77,0.00,,,0.02,,2013-01-26 00:22:00,
2013-01-25 17:31:00,64.0,57.0,29.98,NW,310,5.0,6.0,77,0.00,,,0.02,,2013-01-26 00:31:00,
2013-01-25 17:41:00,64.0,57.0,29.98,NW,310,5.0,6.0,77,0.00,,,0.02,,2013-01-26 00:41:00,
2013-01-25 17:53:00,63.0,56.0,29.98,WNW,296,5.0,9.0,79,0.00,,,0.02,,2013-01-26 00:53:00,
2013-01-25 18:01:00,63.0,57.0,29.98,West,278,2.0,4.0,80,0.00,,,0.02,,2013-01-26 01:01:00,
2013-01-25 18:11:00,63.0,57.0,29.98,West,278,2.0,4.0,80,0.00,,,0.02,,2013-01-26 01:11:00,
2013-01-25 18:22:00,63.0,57.0,29.98,West,267,3.0,4.0,81,0.00,,,0.02,,2013-01-26 01:22:00,
2013-01-25 18:31:00,63.0,57.0,29.99,West,262,4.0,6.0,82,0.01,,,0.03,,2013-01-26 01:31:00,
2013-01-25 18:41:00,63.0,57.0,29.99,West,262,4.0,6.0,82,0.01,,,0.03,,2013-01-26 01:41:00,
2013-01-25 18:52:00,62.0,57.0,29.99,West,269,3.0,6.0,83,0.01,,,0.03,,2013-01-26 01:52:00,
2013-01-25 19:01:00,62.0,57.0,29.99,West,267,7.0,8.0,84,0.02,,,0.04,,2013-01-26 02:01:00,
2013-01-25 19:11:00,62.0,57.0,29.99,West,267,7.0,8.0,84,0.02,,,0.04,,2013-01-26 02:11:00,
2013-01-25 19:21:00,61.0,56.0,29.98,NW,322,1.0,3.0,85,0.02,,,0.04,,2013-01-26 02:21:00,
2013-01-25 19:32:00,60.0,56.0,29.99,West,276,1.0,2.0,87,0.01,,,0.04,,2013-01-26 02:32:00,
2013-01-25 19:41:00,60.0,56.0,29.99,West,276,1.0,2.0,87,0.01,,,0.04,,2013-01-26 02:41:00,
2013-01-25 19:52:00,60.0,56.0,29.99,West,276,5.0,7.0,87,0.04,,,0.07,,2013-01-26 02:52:00,
2013-01-25 20:01:00,60.0,57.0,30.00,West,272,8.0,13.0,89,0.07,,,0.11,,2013-01-26 03:01:00,
2013-01-25 20:11:00,60.0,57.0,30.00,West,272,8.0,13.0,89,0.07,,,0.11,,2013-01-26 03:11:00,
2013-01-25 20:21:00,59.0,56.0,30.02,West,276,7.0,10.0,90,0.12,,,0.16,,2013-01-26 03:21:00,
2013-01-25 20:31:00,59.0,56.0,30.01,WNW,295,2.0,4.0,91,0.17,,,0.21,,2013-01-26 03:31:00,
2013-01-25 20:42:00,59.0,56.0,30.01,WNW,295,2.0,4.0,91,0.17,,,0.21,,2013-01-26 03:42:00,
2013-01-25 20:52:00,59.0,56.0,30.00,NNW,331,7.0,9.0,91,0.18,,,0.25,,2013-01-26 03:52:00,
2013-01-25 21:01:00,59.0,57.0,30.00,NW,319,6.0,10.0,92,0.17,,,0.28,,2013-01-26 04:01:00,
2013-01-25 21:12:00,59.0,57.0,30.00,NW,319,6.0,10.0,92,0.17,,,0.28,,2013-01-26 04:12:00,
2013-01-25 21:21:00,59.0,57.0,30.00,West,280,3.0,5.0,93,0.13,,,0.29,,2013-01-26 04:21:00,
2013-01-25 21:32:00,59.0,57.0,29.99,North,8,3.0,3.0,93,0.09,,,0.30,,2013-01-26 04:32:00,
2013-01-25 21:42:00,59.0,57.0,29.99,North,8,3.0,3.0,93,0.09,,,0.30,,2013-01-26 04:42:00,
2013-01-25 21:52:00,59.0,57.0,29.99,NW,320,1.0,4.0,93,0.07,,,0.32,,2013-01-26 04:52:00,
2013-01-25 22:01:00,59.0,57.0,29.99,NW,315,1.0,2.0,93,0.05,,,0.33,,2013-01-26 05:01:00,
2013-01-25 22:12:00,59.0,57.0,29.99,NW,315,1.0,2.0,93,0.05,,,0.33,,2013-01-26 05:12:00,
2013-01-25 22:22:00,59.0,57.0,30.00,NE,43,1.0,3.0,93,0.07,,,0.36,,2013-01-26 05:22:00,
2013-01-25 22:32:00,59.0,57.0,29.98,NNE,12,4.0,5.0,93,0.09,,,0.39,,2013-01-26 05:32:00,
2013-01-25 22:41:00,59.0,57.0,29.98,NNE,12,4.0,5.0,93,0.09,,,0.39,,2013-01-26 05:41:00,
2013-01-25 22:52:00,59.0,57.0,29.98,North,11,2.0,3.0,93,0.11,,,0.43,,2013-01-26 05:52:00,
2013-01-25 23:02:00,59.0,57.0,29.97,NNE,23,3.0,4.0,93,0.12,,,0.45,,2013-01-26 06:02:00,
2013-01-25 23:11:00,59.0,57.0,29.97,NNE,23,3.0,4.0,93,0.12,,,0.45,,2013-01-26 06:11:00,
2013-01-25 23:21:00,58.0,56.0,29.97,NNW,331,2.0,4.0,93,0.11,,,0.47,,2013-01-26 06:21:00,
2013-01-25 23:31:00,58.0,56.0,29.97,North,354,0.0,2.0,93,0.10,,,0.49,,2013-01-26 06:31:00,
2013-01-25 23:41:00,58.0,56.0,29.97,North,354,0.0,2.0,93,0.10,,,0.49,,2013-01-26 06:41:00,
2013-01-25 23:52:00,59.0,57.0,29.97,NW,310,1.0,2.0,94,0.08,,,0.51,,2013-01-26 06:52:00,